Location: Fort Frances
(48.6170°N, 93.4170°W)
Time: 09:01:22
(UTC-06:00)

Daily predictions for brighter satellites

Satellite Brightness Start Highest point End
(mag) Time Altitude Azimuth Time Altitude Azimuth Time Altitude Azimuth
Tsikada Rocket 4.2 17:16:46 10° S 17:23:01 60° E 17:29:20 10° NNE
MSX 3.9 17:18:35 10° SSE 17:24:10 58° ENE 17:29:49 10° N
Cosmos 1515 Rocket 4.1 17:20:54 10° N 17:25:08 39° ENE 17:29:18 10° SE
Cosmos 1151 Rocket 3.8 17:26:32 10° N 17:30:21 30° ENE 17:34:08 10° SE
Cosmos 1076 Rocket 3.7 17:29:42 10° SSW 17:33:56 77° W 17:38:15 10° N
Orbus 7S? 4.4 17:31:15 10° NW 17:34:08 30° NNE 17:39:06 10° E
BREEZE M DEB (TANK) 1.8 17:29:50 10° WNW 17:34:14 81° SSW 17:36:26 10° ESE
Lacrosse 5 rocket 1.4 17:31:28 10° NW 17:35:06 50° NNE 17:38:54 10° ESE
COSMOS 2441 4.4 17:30:29 10° SSE 17:35:15 57° ENE 17:40:00 10° N
SJ-12 4.1 17:31:27 10° S 17:35:35 80° WSW 17:39:45 10° NNW
In-Cosmos 22 4.3 17:30:42 10° SSW 17:36:04 79° WNW 17:41:37 10° N
CZ-2C R/B 4.2 17:32:16 10° N 17:37:02 70° WNW 17:41:47 10° SSW
Cosmos 2322 4.0 17:32:51 10° SW 17:38:32 74° WNW 17:44:17 10° NNE
Cosmos 1844 Rocket 2.9 17:33:56 10° NNW 17:39:38 81° WSW 17:45:17 10° SSE
MOS 1 4.4 17:37:10 10° SSE 17:42:49 86° WSW 17:48:32 10° NNW
Cosmos 1634 Rocket 4.0 17:37:11 10° N 17:43:19 58° ENE 17:49:22 10° SSE
Cosmos 1500 Rocket 4.1 17:39:35 10° SSE 17:43:35 37° E 17:47:37 10° NNE
SL-16 R/B 3.8 17:39:14 10° WSW 17:44:14 31° NW 17:49:15 10° NNE
Cosmos 389 Rocket 3.6 17:42:19 10° NNW 17:45:49 50° W 17:49:16 10° S
CZ-4 R/B 2.0 17:42:27 10° S 17:46:17 58° W 17:50:10 10° NNW
Cosmos 1763 Rocket 3.5 17:43:38 10° SSW 17:48:49 71° ESE 17:53:59 10° NNE
Cosmos 372 Rocket 4.2 17:46:49 10° NNW 17:51:46 47° ENE 17:56:41 10° SE
CZ-4C R/B 4.0 17:47:31 10° NW 17:52:12 22° N 17:57:22 10° NE
Cosmos 332 Rocket 3.9 17:48:04 10° S 17:52:46 55° ESE 17:57:32 10° NNE
Cosmos 2333 4.2 17:47:34 10° SSW 17:53:08 71° ESE 17:58:44 10° NNE
Meteor 2-2 Rocket 4.2 17:50:01 10° NNW 17:55:42 89° E 18:01:21 10° S
Cosmos 1328 4.2 17:53:03 10° SSE 17:56:44 39° E 18:00:27 10° NNE
Cosmos 2360 Rocket 3.0 17:53:29 10° SW 17:58:55 49° NW 18:04:23 10° NNE
Lacrosse 4 Rocket 3.1 17:57:10 10° N 17:59:33 15° NE 18:00:21 14° NE
NOSS 0 Rocket 4.4 17:53:48 10° S 17:59:35 42° ESE 18:05:22 10° NE
MONITOR-E 4.1 17:56:34 10° SSE 17:59:44 78° ENE 18:02:56 10° N
Cosmos 1980 Rocket 4.5 17:58:10 10° WNW 18:00:53 14° NNW 18:03:37 10° N
Cosmos 1980 4.3 17:56:06 10° S 18:01:17 38° ESE 18:06:12 11° NE
Cosmos 2084 3.9 18:01:34 10° SSW 18:05:08 36° SE 18:07:19 19° ENE
Cosmos 540 Rocket 4.0 18:01:48 10° S 18:06:33 38° ESE 18:10:57 12° NE
Meteor 2-10 4.1 18:01:53 10° N 18:06:49 49° ENE 18:11:50 10° SSE
ATLAS 3B R/B 4.2 18:02:33 10° WNW 18:08:28 25° NNW 18:13:57 11° NE
Cosmos 44 4.1 18:05:51 10° S 18:10:36 36° ESE 18:13:37 19° ENE
SJ-6B 3.5 18:07:07 10° SE 18:10:47 33° ENE 18:14:32 10° N
ALOS 3.3 18:07:57 10° ESE 18:11:42 24° ENE 18:15:26 10° N
USA 215 3.3 18:05:26 10° ESE 18:12:01 88° SSW 18:18:37 10° NW
ATLAS 5 CENTAUR R/B 3.9 18:11:32 10° NW 18:15:17 18° N 18:18:04 13° NE
Cosmos 2333 Rocket 2.3 18:10:22 10° S 18:15:53 57° ESE 18:20:56 12° NE
COSMO-SKYMED 1 2.6 18:14:11 10° NNE 18:18:30 62° ESE 18:22:48 10° S
METEOR-M 4.2 18:13:32 10° SE 18:18:41 52° ENE 18:23:54 10° N
Resurs 01 Rocket 2.6 18:17:34 17° ESE 18:19:57 26° ENE 18:23:38 10° N
Cosmos 1707 Rocket 4.1 18:16:30 10° N 18:20:26 33° ENE 18:24:22 10° SE
Cosmos 1703 4.2 18:18:35 10° SE 18:21:49 25° E 18:21:52 25° E
Cosmos 371 Rocket 3.2 18:17:50 10° SSW 18:22:38 76° ESE 18:27:13 11° NNE
YAOGAN 1 4.3 18:19:03 10° SSW 18:23:03 37° W 18:27:06 10° NNW
Cosmos 2219 Rocket 2.1 18:19:31 10° SSW 18:25:10 82° ESE 18:30:32 12° NNE
Thor Agena Rocket 4.0 18:20:19 10° N 18:25:33 66° WNW 18:30:42 10° SSW
Cosmos 2058 3.0 18:22:02 10° SSE 18:26:00 48° E 18:29:30 13° NNE
Cosmos 1125 Rocket 3.8 18:21:24 10° NNW 18:26:36 68° WSW 18:31:44 10° S
Cosmos 2322 Rocket 4.4 18:24:28 10° W 18:28:17 18° NW 18:32:05 10° N
Cosmos 2278 Rocket 2.4 18:23:05 10° NNW 18:28:47 74° WSW 18:34:26 10° SSE
SL-19 R/B 4.5 18:26:28 10° SE 18:32:04 50° ENE 18:37:28 10° N
Meteor 1-27 4.2 18:26:20 10° N 18:32:11 82° ENE 18:38:02 10° SSE
FREGAT/IRIS 2.9 18:32:17 44° ENE 18:32:17 44° ENE 18:35:13 10° N
Cosmos 1455 3.7 18:30:34 10° N 18:32:13 21° NNE 18:32:13 21° NNE
Cosmos 2279 Rocket 3.9 18:28:13 10° N 18:34:28 81° E 18:40:42 10° SSE
Cosmos 1943 Rocket 4.1 18:32:56 10° N 18:34:43 12° NNE 18:34:43 12° NNE
Cosmos 1626 3.9 18:32:44 10° SSE 18:34:02 18° SE 18:34:02 18° SE
Cosmos 1340 Rocket 2.9 18:35:48 10° S 18:39:37 50° E 18:40:58 33° NE
Spot 2 Rocket 3.8 18:35:25 10° SE 18:40:07 41° ENE 18:44:52 10° N
NOAA 12 4.0 18:36:53 10° SSE 18:42:08 85° ENE 18:47:27 10° NNW
Cosmos 44 Rocket 3.3 18:37:36 10° SW 18:42:44 90° NNE 18:45:41 25° NE
Cosmos 841 Rocket 4.3 18:38:32 10° SW 18:43:41 52° WNW 18:48:51 10° NNE
SL-14 R/B 3.4 18:41:52 10° SSW 18:45:48 77° W 18:49:48 10° N
BREEZE-M DEB (TANK) 2.6 18:44:47 10° SW 18:46:31 29° S 18:46:31 29° S
Cosmos 1726 3.6 18:45:20 10° NNW 18:48:53 39° W 18:52:24 10° SSW
Lacrosse 5 3.0 18:46:28 10° WNW 18:51:04 33° N 18:52:57 26° NNE
Cosmos 1300 4.3 18:49:26 10° NNW 18:53:00 37° W 18:56:33 10° SSW
CENTAUR R/B 3.2 18:47:45 10° WSW 18:53:57 55° NW 18:59:12 18° NE
Cosmos 2180 Rocket 4.4 18:48:36 10° N 18:54:48 87° W 19:01:00 10° S
COSMOS 2428 3.9 18:51:49 10° WSW 18:57:09 39° NW 19:02:30 10° NNE
Cosmos 2237 Rocket 2.1 18:51:45 10° SSW 18:57:23 89° ESE 19:01:05 23° NNE
Cosmos 2151 3.5 18:53:18 10° SSW 18:57:26 58° WNW 19:01:37 10° N
DNEPR-1 R/B 4.3 18:51:57 10° SW 18:58:38 82° NW 19:01:39 29° NE
Nadezhda 4 Rocket 4.0 18:52:59 10° SSE 18:59:01 54° E 19:05:09 10° NNE
Cosmos 2369 Rocket 3.5 18:54:40 10° N 18:58:25 23° NNE 18:58:25 23° NNE
Cosmos 1900 4.3 18:56:59 10° NW 19:01:58 88° SW 19:04:51 26° SSE
SL-16 R/B 2.4 18:57:29 10° S 19:02:51 47° ESE 19:03:37 44° E
Cosmos 304 Rocket 3.7 19:01:24 10° S 19:06:09 62° ESE 19:06:45 56° ENE
BREEZE-M DEB (TANK) 4.4 18:43:18 10° W 19:06:36 86° N 19:08:56 41° E
Aureole 2 Rocket 2.6 19:03:22 10° SSW 19:07:07 88° ESE 19:07:20 80° NNE
Cosmos 2297 3.9 19:03:21 10° NNW 19:09:03 74° WSW 19:14:46 10° SSE
Cosmos 1805 Rocket 3.5 19:09:18 10° S 19:13:45 86° W 19:15:35 36° N
Lacrosse 5 rocket 2.8 19:10:48 10° WNW 19:14:12 31° SW 19:16:05 21° S
Meteor 1-28 Rocket 4.4 19:14:50 18° N 19:17:15 40° WNW 19:20:45 10° SW
Cosmos 1092 Rocket 4.0 19:11:15 10° SSE 19:17:22 54° E 19:20:04 33° NNE
Sich 1 3.8 19:31:02 10° SSW 19:34:13 46° SSW 19:34:13 46° SSW
Lacrosse 4 Rocket 3.0 19:34:51 10° NNW 19:36:44 26° NNW 19:36:44 26° NNW
CZ-4C R/B 3.8 19:37:18 10° NW 19:42:41 29° NNE 19:42:41 29° NNE
FENGYUN 3A 4.3 19:43:32 10° S 19:48:47 55° W 19:54:05 10° NNW
ALOS 3.2 19:44:23 10° S 19:48:52 47° W 19:53:24 10° NNW
Cosmos 44 4.2 19:46:48 10° WSW 19:51:47 45° NW 19:52:05 45° NNW
Resurs 01 Rocket 2.9 19:55:07 34° SW 19:56:15 40° W 20:00:28 10° NNW
Cosmos 2333 Rocket 3.8 19:55:32 10° WSW 20:00:29 30° NW 20:02:58 22° N
ATLAS 3B R/B 4.0 19:55:42 10° NW 20:01:12 26° N 20:01:12 26° N
ATLAS 5 CENTAUR R/B 3.7 19:56:31 10° NNW 19:59:37 26° N 19:59:37 26° N
Cosmos 2219 Rocket 4.2 20:05:25 10° W 20:09:49 23° NW 20:12:17 17° N
Cosmos 1943 Rocket 4.3 20:15:00 10° NNW 20:16:15 17° N 20:16:15 17° N
Lacrosse 5 4.1 20:30:22 10° NW 20:32:10 20° NW 20:32:10 20° NW
Cosmos 2237 Rocket 4.2 20:37:59 10° W 20:42:16 22° NW 20:42:58 21° NNW
Cosmos 2369 Rocket 4.1 20:38:14 10° NNW 20:40:14 23° NNW 20:40:14 23° NNW
CENTAUR R/B 4.2 20:40:36 10° WNW 20:46:17 27° NNW 20:46:24 27° N
SL-16 R/B 3.8 20:41:58 10° WSW 20:45:34 30° W 20:45:34 30° W
